QPF
0.00 0.01 0.03 0.01 0.01 0.01 0.01 0.02 0.02 0.02 0.01 0.01 0.01 0.01 0.01 0.01 0.01 0.01 0.00 0.01 0.01 0.01 0.01 0.00 0.00 0.00 0.00 0.00 0.00 0.00 0.00 0.01 0.01 0.01 0.01 0.02 0.02 0.02 0.02 0.02 0.03 0.05 0.05 0.04
0.00 0.01 0.00 0.00 0.00 0.01 0.01 0.02 0.02 0.02 0.01 0.01 0.02 0.02 0.01 0.01 0.01 0.01 0.01 0.01 0.01 0.00 0.01 0.00 0.00 0.00 0.00 0.00 0.00 0.00 0.00 0.01 0.01 0.00 0.00 0.01 0.01 0.01 0.02 0.03 0.03 0.04 0.05 0.05
0.00 0.00 0.00 0.00 0.00 0.01 0.01 0.01 0.01 0.01 0.01 0.02 0.03 0.02 0.02 0.02 0.01 0.01 0.01 0.01 0.01 0.01 0.01 0.01 0.03 0.04 0.01 0.00 0.00 0.00 0.00 0.01 0.00 0.01 0.01 0.01 0.01 0.01 0.02 0.03 0.03 0.02 0.03 0.05
0.00 0.00 0.00 0.00 0.00 0.01 0.01 0.01 0.01 0.01 0.01 0.03 0.04 0.05 0.05 0.03 0.02 0.01 0.01 0.01 0.02 0.02 0.02 0.02 0.04 0.07 0.02 0.00 0.00 0.00 0.00 0.00 0.00 0.00 0.01 0.01 0.01 0.01 0.01 0.02 0.03 0.03 0.02 0.02
0.00 0.00 0.00 0.00 0.00 0.01 0.01 0.00 0.00 0.00 0.01 0.02 0.03 0.05 0.07 0.08 0.03 0.03 0.01 0.02 0.03 0.02 0.02 0.01 0.02 0.03 0.01 0.00 0.00 0.00 0.00 0.00 0.00 0.00 0.01 0.01 0.02 0.02 0.03 0.02 0.02 0.02 0.03 0.02
0.00 0.00 0.00 0.00 0.00 0.01 0.00 0.00 0.00 0.01 0.01 0.02 0.02 0.03 0.04 0.04 0.03 0.02 0.02 0.01 0.02 0.02 0.01 0.01 0.01 0.01 0.00 0.00 0.00 0.00 0.00 0.01 0.00 0.00 0.01 0.02 0.03 0.02 0.02 0.01 0.01 0.01 0.02 0.02
0.00 0.00 0.00 0.00 0.00 0.00 0.00 0.00 0.00 0.01 0.03 0.03 0.02 0.05 0.05 0.03 0.03 0.03 0.02 0.02 0.02 0.02 0.01 0.01 0.02 0.02 0.01 0.00 0.00 0.00 0.00 0.00 0.00 0.00 0.01 0.03 0.04 0.03 0.03 0.02 0.02 0.01 0.01 0.02
0.00 0.00 0.00 0.00 0.00 0.00 0.01 0.01 0.00 0.01 0.03 0.03 0.03 0.06 0.05 0.04 0.03 0.04 0.06 0.05 0.03 0.02 0.01 0.01 0.01 0.01 0.01 0.01 0.00 0.00 0.00 0.01 0.01 0.01 0.02 0.03 0.04 0.03 0.04 0.04 0.03 0.02 0.02 0.02
0.00 0.00 0.00 0.00 0.00 0.00 0.01 0.01 0.00 0.00 0.01 0.01 0.03 0.05 0.04 0.04 0.03 0.04 0.08 0.07 0.05 0.04 0.02 0.01 0.01 0.01 0.01 0.03 0.01 0.01 0.01 0.02 0.02 0.03 0.03 0.04 0.05 0.04 0.04 0.04 0.03 0.02 0.02 0.02
0.00 0.00 0.00 0.01 0.01 0.00 0.01 0.01 0.00 0.01 0.00 0.01 0.04 0.08 0.06 0.07 0.09 0.14 0.12 0.07 0.03 0.02 0.01 0.04 0.03 0.01 0.01 0.03 0.02 0.01 0.01 0.03 0.04 0.04 0.04 0.04 0.04 0.04 0.02 0.02 0.01 0.01 0.02 0.02
0.00 0.00 0.00 0.01 0.01 0.01 0.01 0.00 0.01 0.01 0.01 0.01 0.04 0.07 0.05 0.06 0.10 0.15 0.17 0.10 0.04 0.02 0.01 0.02 0.04 0.03 0.01 0.02 0.01 0.02 0.02 0.04 0.05 0.04 0.03 0.03 0.03 0.03 0.03 0.02 0.01 0.01 0.02 0.02
0.00 0.00 0.00 0.00 0.00 0.00 0.00 0.00 0.01 0.00 0.01 0.00 0.01 0.03 0.04 0.05 0.07 0.12 0.13 0.08 0.05 0.02 0.02 0.03 0.04 0.02 0.02 0.02 0.02 0.02 0.02 0.04 0.04 0.03 0.02 0.03 0.03 0.02 0.02 0.01 0.01 0.01 0.01 0.01
0.00 0.00 0.00 0.00 0.00 0.00 0.00 0.00 0.00 0.00 0.00 0.00 0.01 0.02 0.02 0.07 0.08 0.08 0.08 0.10 0.07 0.03 0.03 0.04 0.04 0.02 0.02 0.01 0.01 0.02 0.02 0.03 0.07 0.05 0.02 0.02 0.02 0.03 0.02 0.01 0.01 0.01 0.01 0.01
0.00 0.00 0.00 0.00 0.00 0.00 0.00 0.00 0.00 0.00 0.00 0.00 0.01 0.02 0.03 0.03 0.05 0.08 0.06 0.05 0.07 0.07 0.05 0.04 0.04 0.03 0.02 0.02 0.01 0.01 0.01 0.01 0.01 0.02 0.01 0.01 0.02 0.02 0.01 0.01 0.00 0.00 0.00 0.00
0.00 0.00 0.00 0.00 0.00 0.00 0.00 0.00 0.00 0.00 0.00 0.01 0.03 0.04 0.03 0.03 0.05 0.05 0.04 0.02 0.02 0.05 0.06 0.05 0.05 0.04 0.04 0.03 0.02 0.01 0.01 0.01 0.01 0.01 0.01 0.01 0.02 0.02 0.01 0.01 0.00 0.01 0.01 0.00
0.00 0.00 0.00 0.00 0.00 0.00 0.00 0.00 0.00 0.00 0.01 0.05 0.08 0.05 0.03 0.03 0.07 0.07 0.05 0.04 0.03 0.03 0.05 0.08 0.09 0.06 0.04 0.03 0.02 0.01 0.01 0.02 0.02 0.01 0.02 0.02 0.02 0.02 0.01 0.01 0.01 0.01 0.01 0.01
0.00 0.00 0.00 0.00 0.00 0.00 0.00 0.00 0.00 0.01 0.04 0.06 0.06 0.07 0.08 0.06 0.10 0.11 0.11 0.06 0.04 0.05 0.06 0.06 0.06 0.05 0.05 0.05 0.04 0.02 0.02 0.02 0.03 0.03 0.02 0.02 0.02 0.01 0.01 0.00 0.00 0.01 0.01 0.01
0.00 0.00 0.00 0.00 0.00 0.00 0.01 0.00 0.01 0.02 0.03 0.03 0.05 0.10 0.09 0.05 0.07 0.10 0.08 0.05 0.03 0.03 0.04 0.05 0.06 0.04 0.02 0.04 0.07 0.08 0.06 0.04 0.03 0.03 0.02 0.03 0.02 0.01 0.01 0.01 0.01 0.02 0.02 0.02
0.00 0.00 0.00 0.00 0.00 0.01 0.01 0.01 0.01 0.01 0.03 0.04 0.06 0.10 0.08 0.04 0.04 0.06 0.05 0.03 0.02 0.01 0.02 0.03 0.05 0.03 0.02 0.03 0.05 0.06 0.05 0.05 0.06 0.05 0.03 0.02 0.03 0.02 0.02 0.01 0.02 0.04 0.05 0.04
0.00 0.00 0.00 0.00 0.01 0.01 0.01 0.01 0.01 0.01 0.04 0.07 0.05 0.04 0.05 0.06 0.06 0.05 0.04 0.02 0.02 0.01 0.02 0.02 0.02 0.02 0.02 0.02 0.05 0.06 0.05 0.05 0.06 0.06 0.06 0.04 0.03 0.02 0.02 0.03 0.03 0.05 0.05 0.05
0.00 0.00 0.00 0.00 0.01 0.01 0.02 0.01 0.01 0.03 0.03 0.04 0.03 0.02 0.04 0.04 0.04 0.03 0.03 0.03 0.03 0.02 0.02 0.03 0.02 0.01 0.01 0.01 0.02 0.04 0.06 0.06 0.05 0.07 0.07 0.05 0.05 0.05 0.05 0.05 0.05 0.06 0.07 0.08
0.00 0.00 0.00 0.01 0.01 0.01 0.01 0.01 0.01 0.02 0.02 0.02 0.03 0.03 0.03 0.04 0.03 0.03 0.03 0.03 0.03 0.02 0.01 0.02 0.02 0.01 0.01 0.01 0.02 0.03 0.04 0.05 0.05 0.06 0.10 0.11 0.09 0.06 0.05 0.06 0.06 0.07 0.08 0.09
0.01 0.00 0.00 0.01 0.01 0.01 0.01 0.01 0.02 0.02 0.02 0.02 0.02 0.02 0.02 0.04 0.04 0.03 0.05 0.05 0.04 0.02 0.01 0.01 0.01 0.01 0.01 0.02 0.03 0.04 0.07 0.07 0.07 0.09 0.11 0.14 0.12 0.08 0.06 0.07 0.07 0.08 0.09 0.09
0.01 0.01 0.01 0.01 0.02 0.02 0.02 0.02 0.03 0.04 0.05 0.07 0.05 0.04 0.04 0.03 0.03 0.03 0.02 0.02 0.02 0.02 0.01 0.01 0.01 0.01 0.01 0.02 0.03 0.05 0.11 0.14 0.12 0.09 0.08 0.09 0.09 0.08 0.08 0.07 0.08 0.09 0.08 0.08
0.06 0.04 0.01 0.02 0.03 0.03 0.03 0.05 0.05 0.06 0.06 0.11 0.12 0.09 0.08 0.07 0.04 0.02 0.01 0.01 0.01 0.01 0.01 0.01 0.01 0.01 0.01 0.02 0.03 0.05 0.06 0.08 0.11 0.10 0.07 0.07 0.07 0.07 0.05 0.06 0.07 0.08 0.08 0.09
0.03 0.02 0.02 0.03 0.03 0.03 0.03 0.04 0.05 0.04 0.06 0.07 0.08 0.08 0.08 0.07 0.06 0.04 0.02 0.02 0.01 0.01 0.01 0.01 0.01 0.02 0.02 0.03 0.05 0.07 0.08 0.07 0.06 0.06 0.07 0.07 0.07 0.06 0.05 0.05 0.06 0.08 0.05 0.05
MSLP
1011.16 1011.83 1012.35 1012.74 1013.04 1013.29 1013.55 1013.84 1014.16 1014.48 1014.75 1014.94 1015.02 1015.00 1014.89 1014.76 1014.67 1014.69 1014.85 1015.15 1015.56 1016.02 1016.45 1016.77 1016.92 1016.90 1016.72 1016.42 1016.09 1015.79 1015.58 1015.51 1015.56 1015.70 1015.89 1016.06 1016.16 1016.16 1016.06 1015.89 1015.68 1015.49 1015.38 1015.36
1012.04 1012.50 1012.78 1012.92 1013.03 1013.16 1013.40 1013.78 1014.26 1014.79 1015.29 1015.67 1015.89 1015.91 1015.78 1015.56 1015.33 1015.21 1015.23 1015.43 1015.79 1016.23 1016.68 1017.03 1017.21 1017.20 1016.99 1016.66 1016.26 1015.89 1015.63 1015.52 1015.55 1015.70 1015.90 1016.09 1016.19 1016.18 1016.05 1015.82 1015.56 1015.31 1015.13 1015.07
1012.55 1012.77 1012.79 1012.72 1012.65 1012.72 1013.01 1013.53 1014.25 1015.06 1015.83 1016.45 1016.82 1016.92 1016.76 1016.42 1016.03 1015.71 1015.54 1015.59 1015.83 1016.22 1016.65 1017.01 1017.22 1017.24 1017.04 1016.70 1016.29 1015.89 1015.60 1015.46 1015.49 1015.65 1015.86 1016.07 1016.19 1016.18 1016.04 1015.78 1015.47 1015.17 1014.94 1014.83
1012.71 1012.69 1012.48 1012.22 1012.06 1012.13 1012.53 1013.26 1014.25 1015.37 1016.44 1017.31 1017.84 1018.00 1017.79 1017.31 1016.72 1016.15 1015.75 1015.59 1015.67 1015.95 1016.33 1016.69 1016.93 1016.98 1016.84 1016.53 1016.13 1015.74 1015.45 1015.32 1015.35 1015.52 1015.76 1015.99 1016.14 1016.15 1016.01 1015.75 1015.42 1015.08 1014.81 1014.64
1012.65 1012.42 1012.02 1011.63 1011.42 1011.55 1012.11 1013.08 1014.37 1015.80 1017.16 1018.25 1018.92 1019.10 1018.82 1018.18 1017.35 1016.51 1015.84 1015.43 1015.31 1015.46 1015.76 1016.11 1016.37 1016.48 1016.39 1016.14 1015.80 1015.45 1015.19 1015.08 1015.13 1015.31 1015.58 1015.84 1016.01 1016.06 1015.94 1015.70 1015.37 1015.01 1014.71 1014.49
1012.52 1012.11 1011.57 1011.12 1010.92 1011.15 1011.88 1013.09 1014.65 1016.35 1017.94 1019.20 1019.96 1020.14 1019.76 1018.93 1017.87 1016.77 1015.82 1015.16 1014.84 1014.83 1015.05 1015.37 1015.65 1015.81 1015.80 1015.63 1015.35 1015.06 1014.84 1014.75 1014.82 1015.02 1015.30 1015.59 1015.80 1015.88 1015.80 1015.59 1015.28 1014.93 1014.61 1014.36
1012.46 1011.92 1011.32 1010.84 1010.70 1011.04 1011.92 1013.32 1015.08 1016.96 1018.70 1020.05 1020.84 1020.98 1020.49 1019.50 1018.23 1016.89 1015.72 1014.84 1014.34 1014.20 1014.33 1014.62 1014.91 1015.12 1015.17 1015.06 1014.85 1014.61 1014.43 1014.36 1014.44 1014.64 1014.93 1015.23 1015.46 1015.58 1015.54 1015.37 1015.10 1014.78 1014.47 1014.21
1012.55 1011.95 1011.33 1010.88 1010.79 1011.22 1012.21 1013.71 1015.56 1017.51 1019.29 1020.66 1021.42 1021.49 1020.91 1019.80 1018.39 1016.90 1015.57 1014.55 1013.92 1013.68 1013.75 1014.00 1014.29 1014.52 1014.61 1014.55 1014.39 1014.18 1014.01 1013.94 1014.00 1014.19 1014.46 1014.75 1015.00 1015.14 1015.15 1015.02 1014.80 1014.52 1014.24 1014.01
1012.80 1012.22 1011.62 1011.22 1011.19 1011.66 1012.68 1014.18 1016.00 1017.90 1019.61 1020.90 1021.59 1021.60 1020.96 1019.80 1018.34 1016.82 1015.44 1014.37 1013.69 1013.40 1013.42 1013.63 1013.90 1014.12 1014.21 1014.16 1014.00 1013.79 1013.61 1013.51 1013.54 1013.69 1013.93 1014.19 1014.43 1014.59 1014.62 1014.55 1014.38 1014.16 1013.93 1013.73
1013.18 1012.66 1012.14 1011.80 1011.81 1012.27 1013.22 1014.62 1016.29 1018.03 1019.58 1020.73 1021.32 1021.27 1020.64 1019.52 1018.12 1016.68 1015.37 1014.35 1013.69 1013.39 1013.39 1013.57 1013.79 1013.96 1014.01 1013.93 1013.73 1013.48 1013.26 1013.12 1013.09 1013.18 1013.37 1013.59 1013.80 1013.95 1014.01 1013.97 1013.85 1013.69 1013.53 1013.39
1013.60 1013.21 1012.79 1012.52 1012.54 1012.94 1013.76 1014.96 1016.40 1017.88 1019.20 1020.16 1020.65 1020.58 1020.01 1019.02 1017.80 1016.54 1015.40 1014.52 1013.95 1013.69 1013.67 1013.79 1013.94 1014.03 1014.00 1013.84 1013.58 1013.27 1012.99 1012.79 1012.70 1012.72 1012.84 1013.02 1013.19 1013.32 1013.37 1013.35 1013.28 1013.17 1013.06 1012.98
1014.00 1013.76 1013.48 1013.28 1013.30 1013.61 1014.26 1015.20 1016.34 1017.53 1018.58 1019.36 1019.74 1019.69 1019.23 1018.44 1017.47 1016.48 1015.58 1014.89 1014.45 1014.23 1014.20 1014.25 1014.30 1014.27 1014.13 1013.87 1013.52 1013.15 1012.80 1012.54 1012.39 1012.36 1012.42 1012.53 1012.65 1012.74 1012.78 1012.76 1012.70 1012.63 1012.57 1012.54
1014.33 1014.27 1014.14 1014.03 1014.05 1014.27 1014.73 1015.41 1016.25 1017.12 1017.92 1018.51 1018.82 1018.80 1018.49 1017.94 1017.26 1016.55 1015.92 1015.44 1015.12 1014.94 1014.87 1014.83 1014.76 1014.59 1014.33 1013.96 1013.53 1013.10 1012.71 1012.41 1012.21 1012.13 1012.13 1012.18 1012.24 1012.27 1012.27 1012.23 1012.16 1012.10 1012.06 1012.06
1014.62 1014.76 1014.78 1014.77 1014.81 1014.95 1015.24 1015.69 1016.24 1016.84 1017.40 1017.83 1018.08 1018.12 1017.97 1017.65 1017.24 1016.82 1016.43 1016.11 1015.89 1015.72 1015.59 1015.44 1015.23 1014.92 1014.53 1014.07 1013.58 1013.11 1012.70 1012.38 1012.16 1012.04 1011.99 1011.97 1011.96 1011.92 1011.86 1011.76 1011.66 1011.57 1011.53 1011.54
1014.95 1015.26 1015.44 1015.54 1015.61 1015.71 1015.88 1016.13 1016.46 1016.83 1017.19 1017.50 1017.71 1017.80 1017.78 1017.66 1017.48 1017.27 1017.05 1016.86 1016.67 1016.48 1016.26 1015.98 1015.63 1015.20 1014.70 1014.17 1013.65 1013.16 1012.76 1012.44 1012.22 1012.07 1011.97 1011.88 1011.78 1011.66 1011.50 1011.32 1011.16 1011.02 1010.95 1010.95
1015.37 1015.83 1016.16 1016.36 1016.50 1016.59 1016.69 1016.82 1016.99 1017.19 1017.40 1017.60 1017.77 1017.90 1017.97 1017.97 1017.94 1017.86 1017.74 1017.59 1017.38 1017.12 1016.79 1016.38 1015.90 1015.36 1014.79 1014.23 1013.70 1013.24 1012.87 1012.57 1012.35 1012.18 1012.02 1011.84 1011.64 1011.40 1011.13 1010.85 1010.60 1010.40 1010.27 1010.24
1015.95 1016.53 1016.97 1017.28 1017.48 1017.61 1017.68 1017.75 1017.81 1017.90 1018.01 1018.13 1018.25 1018.37 1018.47 1018.53 1018.55 1018.51 1018.40 1018.21 1017.94 1017.58 1017.12 1016.59 1016.01 1015.40 1014.80 1014.23 1013.73 1013.32 1012.98 1012.71 1012.49 1012.28 1012.04 1011.77 1011.45 1011.07 1010.67 1010.27 1009.92 1009.65 1009.47 1009.41
1016.69 1017.34 1017.87 1018.27 1018.54 1018.71 1018.80 1018.84 1018.86 1018.88 1018.91 1018.96 1019.02 1019.09 1019.16 1019.19 1019.18 1019.09 1018.92 1018.64 1018.26 1017.78 1017.21 1016.59 1015.93 1015.29 1014.69 1014.16 1013.71 1013.35 1013.05 1012.80 1012.56 1012.29 1011.97 1011.58 1011.12 1010.60 1010.07 1009.55 1009.11 1008.76 1008.54 1008.46
1017.55 1018.23 1018.80 1019.26 1019.59 1019.81 1019.93 1019.98 1019.97 1019.95 1019.92 1019.90 1019.89 1019.88 1019.86 1019.81 1019.70 1019.51 1019.21 1018.82 1018.32 1017.72 1017.06 1016.37 1015.68 1015.04 1014.47 1013.99 1013.60 1013.29 1013.03 1012.79 1012.51 1012.17 1011.74 1011.22 1010.62 1009.97 1009.32 1008.70 1008.18 1007.78 1007.54 1007.45
1018.43 1019.10 1019.68 1020.17 1020.54 1020.80 1020.95 1021.01 1021.00 1020.94 1020.86 1020.77 1020.67 1020.56 1020.43 1020.25 1020.00 1019.67 1019.24 1018.72 1018.10 1017.41 1016.69 1015.97 1015.28 1014.66 1014.14 1013.72 1013.39 1013.12 1012.88 1012.61 1012.28 1011.86 1011.33 1010.70 1009.98 1009.22 1008.47 1007.79 1007.22 1006.80 1006.56 1006.48
1019.23 1019.87 1020.44 1020.92 1021.30 1021.58 1021.75 1021.81 1021.80 1021.72 1021.59 1021.42 1021.23 1021.01 1020.75 1020.43 1020.04 1019.57 1019.01 1018.37 1017.66 1016.90 1016.14 1015.41 1014.75 1014.17 1013.70 1013.33 1013.05 1012.80 1012.56 1012.26 1011.88 1011.39 1010.77 1010.05 1009.25 1008.43 1007.63 1006.92 1006.35 1005.95 1005.72 1005.68
1019.88 1020.46 1020.99 1021.45 1021.83 1022.10 1022.27 1022.33 1022.31 1022.20 1022.02 1021.79 1021.52 1021.19 1020.81 1020.36 1019.85 1019.25 1018.58 1017.85 1017.06 1016.27 1015.49 1014.77 1014.12 1013.59 1013.16 1012.82 1012.56 1012.32 1012.06 1011.73 1011.31 1010.76 1010.10 1009.34 1008.51 1007.68 1006.89 1006.21 1005.68 1005.32 1005.14 1005.14
1020.33 1020.86 1021.35 1021.77 1022.11 1022.36 1022.52 1022.57 1022.53 1022.40 1022.18 1021.90 1021.55 1021.13 1020.65 1020.11 1019.49 1018.80 1018.04 1017.24 1016.41 1015.59 1014.80 1014.08 1013.45 1012.93 1012.52 1012.19 1011.92 1011.66 1011.38 1011.03 1010.58 1010.03 1009.36 1008.62 1007.83 1007.06 1006.35 1005.75 1005.30 1005.01 1004.90 1004.94
1020.60 1021.08 1021.51 1021.89 1022.20 1022.42 1022.56 1022.59 1022.53 1022.37 1022.13 1021.80 1021.40 1020.93 1020.38 1019.77 1019.08 1018.32 1017.51 1016.67 1015.80 1014.95 1014.15 1013.42 1012.78 1012.24 1011.80 1011.44 1011.14 1010.85 1010.54 1010.18 1009.73 1009.20 1008.60 1007.93 1007.25 1006.60 1006.01 1005.54 1005.21 1005.03 1004.99 1005.08
1020.72 1021.16 1021.55 1021.89 1022.15 1022.35 1022.45 1022.47 1022.39 1022.22 1021.96 1021.61 1021.18 1020.68 1020.09 1019.44 1018.71 1017.92 1017.08 1016.20 1015.30 1014.42 1013.58 1012.81 1012.12 1011.52 1011.02 1010.59 1010.23 1009.89 1009.55 1009.19 1008.77 1008.31 1007.81 1007.28 1006.76 1006.28 1005.87 1005.57 1005.37 1005.31 1005.35 1005.48
1020.77 1021.17 1021.52 1021.81 1022.04 1022.21 1022.29 1022.29 1022.20 1022.02 1021.75 1021.40 1020.96 1020.45 1019.86 1019.19 1018.45 1017.65 1016.78 1015.88 1014.95 1014.02 1013.12 1012.28 1011.50 1010.81 1010.20 1009.68 1009.22 1008.82 1008.44 1008.08 1007.72 1007.35 1006.98 1006.63 1006.30 1006.03 1005.82 1005.71 1005.68 1005.73 1005.86 1006.04
Thickness
5844 5825 5813 5822 5830 5827 5820 5807 5801 5812 5827 5816 5806 5803 5809 5815 5812 5806 5802 5800 5797 5796 5798 5797 5794 5791 5787 5784 5781 5778 5775 5773 5771 5768 5765 5763 5761 5761 5761 5761 5761 5760 5759 5758
5817 5813 5834 5843 5841 5835 5824 5809 5804 5815 5827 5817 5804 5803 5811 5815 5813 5812 5807 5803 5801 5798 5796 5795 5793 5791 5788 5785 5782 5780 5777 5775 5774 5771 5769 5767 5765 5763 5763 5763 5762 5761 5760 5759
5809 5825 5847 5839 5832 5825 5820 5811 5810 5807 5815 5815 5802 5790 5798 5808 5814 5814 5813 5810 5807 5804 5799 5796 5794 5791 5789 5787 5785 5784 5781 5779 5777 5775 5772 5770 5767 5764 5762 5762 5762 5762 5761 5760
5818 5837 5840 5832 5827 5827 5810 5832 5829 5817 5797 5781 5790 5762 5784 5796 5801 5806 5808 5808 5807 5808 5804 5799 5796 5792 5791 5790 5790 5787 5784 5782 5780 5778 5774 5770 5765 5761 5762 5763 5763 5762 5762 5761
5815 5833 5831 5826 5834 5836 5827 5841 5831 5818 5796 5779 5781 5766 5773 5791 5789 5800 5808 5810 5811 5811 5808 5803 5801 5799 5796 5795 5792 5790 5786 5784 5782 5780 5777 5773 5769 5767 5766 5765 5764 5762 5762 5761
5825 5842 5843 5841 5849 5848 5843 5831 5816 5801 5784 5761 5774 5767 5768 5784 5792 5801 5810 5812 5813 5814 5812 5809 5806 5803 5799 5797 5795 5792 5787 5785 5784 5782 5780 5776 5772 5769 5767 5764 5762 5762 5761 5761
5808 5825 5843 5850 5834 5837 5831 5796 5769 5763 5750 5753 5775 5770 5774 5801 5811 5812 5814 5815 5818 5818 5815 5810 5805 5802 5800 5799 5797 5793 5789 5786 5786 5783 5781 5779 5776 5773 5769 5766 5764 5762 5760 5759
5783 5788 5825 5839 5831 5819 5819 5799 5765 5751 5744 5749 5767 5764 5788 5815 5821 5823 5822 5822 5822 5819 5816 5814 5811 5808 5805 5802 5799 5795 5791 5788 5787 5785 5782 5781 5779 5775 5772 5769 5767 5764 5762 5761
5781 5787 5828 5842 5848 5836 5815 5801 5798 5770 5757 5745 5753 5771 5794 5814 5816 5818 5817 5818 5818 5819 5818 5817 5815 5813 5810 5805 5802 5799 5795 5791 5789 5787 5784 5781 5779 5776 5774 5771 5769 5767 5765 5763
5799 5789 5813 5833 5843 5839 5829 5814 5786 5766 5745 5736 5747 5758 5768 5793 5802 5810 5811 5812 5814 5818 5818 5816 5815 5815 5813 5809 5805 5803 5799 5795 5792 5789 5785 5783 5779 5777 5775 5772 5769 5767 5765 5763
5802 5784 5794 5810 5812 5810 5814 5806 5787 5766 5762 5741 5733 5753 5798 5801 5806 5806 5809 5812 5813 5815 5817 5816 5816 5817 5814 5810 5806 5803 5800 5795 5792 5789 5786 5783 5780 5778 5775 5772 5770 5767 5765 5762
5798 5779 5772 5792 5817 5829 5819 5807 5788 5766 5757 5753 5745 5760 5814 5812 5813 5812 5811 5811 5814 5816 5817 5816 5816 5815 5813 5810 5807 5804 5800 5796 5793 5790 5787 5783 5780 5777 5774 5771 5769 5767 5764 5761
5794 5772 5756 5765 5784 5804 5807 5810 5799 5782 5764 5751 5746 5766 5809 5811 5811 5812 5814 5815 5815 5816 5815 5814 5812 5811 5810 5809 5808 5805 5801 5798 5795 5791 5786 5782 5779 5776 5773 5770 5768 5766 5763 5759
5799 5767 5757 5753 5764 5784 5790 5800 5802 5784 5762 5756 5762 5773 5790 5798 5801 5806 5810 5813 5813 5813 5812 5810 5809 5808 5808 5808 5807 5805 5801 5799 5796 5791 5786 5781 5778 5775 5772 5770 5767 5764 5761 5757
5785 5763 5769 5775 5786 5792 5792 5795 5798 5789 5780 5769 5772 5777 5785 5795 5800 5803 5806 5807 5809 5809 5809 5809 5808 5807 5806 5805 5804 5804 5802 5799 5796 5790 5785 5781 5778 5775 5772 5768 5765 5761 5758 5755
5768 5759 5762 5766 5781 5785 5783 5789 5792 5790 5787 5781 5779 5777 5793 5797 5800 5800 5802 5804 5802 5802 5804 5806 5806 5806 5804 5804 5803 5802 5801 5799 5796 5790 5785 5781 5777 5773 5770 5766 5762 5758 5755 5751
5753 5751 5742 5741 5761 5770 5759 5775 5780 5779 5782 5780 5769 5775 5788 5787 5790 5793 5797 5798 5797 5798 5799 5800 5801 5802 5803 5804 5803 5800 5800 5798 5793 5789 5785 5781 5776 5771 5768 5765 5760 5756 5752 5748
5748 5739 5728 5729 5741 5731 5752 5781 5784 5776 5777 5780 5779 5781 5784 5786 5787 5791 5794 5793 5793 5795 5795 5796 5798 5800 5802 5803 5802 5800 5797 5794 5790 5785 5782 5779 5774 5770 5766 5762 5757 5753 5749 5744
5751 5738 5723 5715 5717 5729 5754 5771 5772 5764 5757 5773 5773 5775 5779 5784 5782 5781 5789 5791 5790 5792 5794 5795 5798 5799 5799 5797 5796 5795 5792 5789 5785 5781 5779 5776 5772 5767 5763 5759 5755 5751 5746 5741
5739 5734 5719 5711 5712 5712 5739 5767 5778 5766 5741 5765 5769 5768 5771 5772 5756 5764 5782 5785 5786 5788 5789 5791 5793 5793 5792 5792 5791 5786 5784 5781 5778 5777 5774 5773 5769 5765 5760 5757 5753 5748 5743 5737
5715 5712 5707 5704 5705 5716 5745 5764 5768 5735 5733 5759 5763 5766 5766 5761 5762 5770 5775 5776 5779 5781 5783 5784 5784 5784 5784 5785 5784 5779 5777 5775 5775 5774 5771 5768 5764 5761 5757 5753 5748 5744 5739 5733
5702 5698 5697 5695 5694 5705 5744 5750 5740 5736 5750 5754 5756 5759 5760 5760 5765 5767 5767 5766 5768 5770 5774 5776 5775 5776 5778 5778 5776 5772 5770 5771 5770 5767 5764 5761 5758 5755 5752 5746 5742 5738 5733 5726
5701 5703 5700 5698 5700 5719 5733 5735 5741 5746 5744 5746 5748 5752 5755 5755 5755 5757 5757 5757 5758 5760 5763 5765 5765 5765 5767 5769 5768 5764 5763 5763 5761 5759 5755 5752 5749 5747 5743 5739 5734 5730 5725 5720
5699 5706 5700 5695 5703 5713 5722 5728 5733 5737 5738 5741 5744 5745 5747 5745 5746 5746 5747 5748 5748 5750 5753 5755 5755 5754 5755 5758 5759 5759 5758 5757 5754 5750 5746 5743 5740 5737 5734 5730 5726 5722 5717 5713
5688 5692 5688 5687 5696 5706 5711 5716 5722 5727 5730 5731 5734 5736 5736 5735 5735 5736 5736 5736 5738 5740 5741 5744 5745 5745 5746 5748 5749 5751 5750 5748 5744 5741 5738 5735 5731 5728 5724 5720 5717 5714 5711 5708
5680 5680 5678 5677 5688 5691 5697 5708 5715 5716 5717 5720 5722 5722 5724 5724 5725 5726 5726 5727 5729 5730 5731 5733 5735 5737 5738 5739 5740 5742 5742 5740 5735 5731 5729 5726 5722 5720 5715 5710 5705 5703 5701 5699